Time,TemperatureF,DewpointF,PressureIn,WindDirection,WindDirectionDegrees,WindSpeedMPH,WindSpeedGustMPH,Humidity,HourlyPrecipIn,Conditions,Clouds,dailyrainin,SoftwareType,DateUTC
2013-02-27 00:00:00,45.0,13.8,28.88,WSW,237,10.5,10.5,28,0.00,,,0.20,VWS V13.01,2013-02-27 05:00:00,
2013-02-27 00:05:00,44.6,14.3,28.88,West,273,7.6,8.7,29,0.00,,,0.00,VWS V13.01,2013-02-27 05:05:00,
2013-02-27 00:10:00,44.2,15.5,28.88,West,274,6.3,8.3,31,0.00,,,0.00,VWS V13.01,2013-02-27 05:10:00,
2013-02-27 00:15:00,43.7,16.5,28.88,WSW,242,4.9,11.0,33,0.00,,,0.00,VWS V13.01,2013-02-27 05:15:00,
2013-02-27 00:20:00,43.2,18.0,28.88,WSW,246,11.0,15.0,36,0.00,,,0.00,VWS V13.01,2013-02-27 05:20:00,
2013-02-27 00:25:00,42.8,18.4,28.88,West,271,5.8,11.9,37,0.00,,,0.00,VWS V13.01,2013-02-27 05:25:00,
2013-02-27 00:30:00,42.6,18.2,28.88,WSW,241,8.7,15.0,37,0.00,,,0.00,VWS V13.01,2013-02-27 05:30:00,
2013-02-27 00:35:00,42.4,17.4,28.88,WSW,249,12.3,16.3,36,0.00,,,0.00,VWS V13.01,2013-02-27 05:35:00,
2013-02-27 00:40:00,42.3,17.2,28.88,West,269,3.6,13.2,36,0.00,,,0.00,VWS V13.01,2013-02-27 05:40:00,
2013-02-27 00:45:00,42.3,18.5,28.88,WNW,289,5.8,10.1,38,0.00,,,0.00,VWS V13.01,2013-02-27 05:45:00,
2013-02-27 00:50:00,42.1,18.3,28.88,WSW,252,4.9,6.7,38,0.00,,,0.00,VWS V13.01,2013-02-27 05:50:00,
2013-02-27 00:55:00,42.1,17.7,28.88,WSW,257,5.4,11.0,37,0.00,,,0.00,VWS V13.01,2013-02-27 05:55:00,
2013-02-27 01:01:00,42.1,18.3,28.88,WSW,256,4.9,6.3,38,0.00,,,0.00,VWS V13.01,2013-02-27 06:01:00,
2013-02-27 01:06:00,42.1,18.3,28.91,West,266,3.1,5.8,38,0.00,,,0.00,VWS V13.01,2013-02-27 06:06:00,
2013-02-27 01:11:00,41.9,18.2,28.91,West,266,5.4,8.1,38,0.00,,,0.00,VWS V13.01,2013-02-27 06:11:00,
2013-02-27 01:16:00,41.9,17.5,28.91,WNW,297,5.8,8.7,37,0.00,,,0.00,VWS V13.01,2013-02-27 06:16:00,
2013-02-27 01:21:00,41.9,17.5,28.91,West,273,7.6,10.5,37,0.00,,,0.00,VWS V13.01,2013-02-27 06:21:00,
2013-02-27 01:26:00,42.1,16.4,28.91,WNW,286,4.0,8.7,35,0.00,,,0.00,VWS V13.01,2013-02-27 06:26:00,
2013-02-27 01:31:00,42.1,16.4,28.91,SSW,211,8.1,8.1,35,0.00,,,0.00,VWS V13.01,2013-02-27 06:31:00,
2013-02-27 01:36:00,41.9,16.3,28.91,WNW,286,3.1,3.1,35,0.00,,,0.00,VWS V13.01,2013-02-27 06:36:00,
2013-02-27 01:41:00,41.9,16.9,28.91,WSW,257,6.3,6.7,36,0.00,,,0.00,VWS V13.01,2013-02-27 06:41:00,
2013-02-27 01:46:00,42.1,16.4,28.91,NW,306,4.0,4.0,35,0.00,,,0.00,VWS V13.01,2013-02-27 06:46:00,
2013-02-27 01:51:00,42.1,16.4,28.91,WSW,252,5.4,5.4,35,0.00,,,0.00,VWS V13.01,2013-02-27 06:51:00,
2013-02-27 01:56:00,42.1,15.1,28.91,West,264,8.3,12.3,33,0.00,,,0.00,VWS V13.01,2013-02-27 06:56:00,
2013-02-27 02:01:00,42.1,15.1,28.91,WNW,300,9.6,9.6,33,0.00,,,0.00,VWS V13.01,2013-02-27 07:01:00,
2013-02-27 02:06:00,42.1,15.1,28.91,SW,232,2.7,2.7,33,0.00,,,0.00,VWS V13.01,2013-02-27 07:06:00,
2013-02-27 02:11:00,42.1,15.1,28.91,WSW,244,5.4,5.4,33,0.00,,,0.00,VWS V13.01,2013-02-27 07:11:00,
2013-02-27 02:16:00,42.1,14.4,28.91,WNW,295,4.0,4.0,32,0.00,,,0.00,VWS V13.01,2013-02-27 07:16:00,
2013-02-27 02:21:00,42.1,14.4,28.91,West,273,3.6,3.6,32,0.00,,,0.00,VWS V13.01,2013-02-27 07:21:00,
2013-02-27 02:26:00,42.1,14.4,28.91,WNW,283,2.7,2.7,32,0.00,,,0.00,VWS V13.01,2013-02-27 07:26:00,
2013-02-27 02:31:00,42.1,14.4,28.91,NW,308,6.3,6.3,32,0.00,,,0.00,VWS V13.01,2013-02-27 07:31:00,
2013-02-27 02:36:00,42.1,14.4,28.91,WNW,292,4.0,8.1,32,0.00,,,0.00,VWS V13.01,2013-02-27 07:36:00,
2013-02-27 02:41:00,42.1,14.4,28.91,NW,304,3.1,8.7,32,0.00,,,0.00,VWS V13.01,2013-02-27 07:41:00,
2013-02-27 02:46:00,42.1,14.4,28.91,WSW,246,4.0,7.6,32,0.00,,,0.00,VWS V13.01,2013-02-27 07:46:00,
2013-02-27 02:51:00,42.1,14.4,28.91,West,279,6.3,6.7,32,0.00,,,0.00,VWS V13.01,2013-02-27 07:51:00,
2013-02-27 02:56:00,42.1,12.9,28.91,West,264,8.3,8.3,30,0.00,,,0.00,VWS V13.01,2013-02-27 07:56:00,
2013-02-27 03:01:00,42.1,12.9,28.91,WNW,283,5.4,13.2,30,0.00,,,0.00,VWS V13.01,2013-02-27 08:01:00,
2013-02-27 03:06:00,42.1,12.9,28.91,WNW,291,5.8,10.1,30,0.00,,,0.00,VWS V13.01,2013-02-27 08:06:00,
2013-02-27 03:11:00,42.1,12.1,28.91,WSW,254,8.3,8.3,29,0.00,,,0.00,VWS V13.01,2013-02-27 08:11:00,
2013-02-27 03:16:00,42.3,12.3,28.91,West,274,3.6,3.6,29,0.00,,,0.00,VWS V13.01,2013-02-27 08:16:00,
2013-02-27 03:21:00,42.3,12.3,28.91,West,274,5.4,5.4,29,0.00,,,0.00,VWS V13.01,2013-02-27 08:21:00,
2013-02-27 03:26:00,42.3,12.3,28.91,SW,222,7.6,9.2,29,0.00,,,0.00,VWS V13.01,2013-02-27 08:26:00,
2013-02-27 03:31:00,42.3,12.3,28.91,WSW,252,8.1,10.5,29,0.00,,,0.00,VWS V13.01,2013-02-27 08:31:00,
2013-02-27 03:36:00,42.3,12.3,28.91,WSW,239,7.6,8.1,29,0.00,,,0.00,VWS V13.01,2013-02-27 08:36:00,
2013-02-27 03:41:00,42.3,12.3,28.91,WSW,254,3.6,10.5,29,0.00,,,0.00,VWS V13.01,2013-02-27 08:41:00,
2013-02-27 03:46:00,42.3,12.3,28.91,West,267,7.6,7.6,29,0.00,,,0.00,VWS V13.01,2013-02-27 08:46:00,
2013-02-27 03:51:00,42.3,12.3,28.91,NW,316,7.6,10.5,29,0.00,,,0.00,VWS V13.01,2013-02-27 08:51:00,
2013-02-27 03:56:00,42.3,12.3,28.91,WNW,289,3.1,3.1,29,0.00,,,0.00,VWS V13.01,2013-02-27 08:56:00,
2013-02-27 04:01:00,42.1,12.1,28.91,WSW,249,5.8,6.3,29,0.00,,,0.00,VWS V13.01,2013-02-27 09:01:00,
2013-02-27 04:06:00,42.1,12.1,28.94,WSW,247,5.8,8.7,29,0.00,,,0.00,VWS V13.01,2013-02-27 09:06:00,
2013-02-27 04:11:00,42.1,12.1,28.94,West,278,5.8,5.8,29,0.00,,,0.00,VWS V13.01,2013-02-27 09:11:00,
2013-02-27 04:16:00,42.1,12.1,28.94,WNW,289,4.0,9.2,29,0.00,,,0.00,VWS V13.01,2013-02-27 09:16:00,
2013-02-27 04:21:00,41.9,12.0,28.94,WNW,285,8.3,10.5,29,0.00,,,0.00,VWS V13.01,2013-02-27 09:21:00,
2013-02-27 04:26:00,42.1,12.1,28.94,WSW,243,4.0,4.0,29,0.00,,,0.00,VWS V13.01,2013-02-27 09:26:00,
2013-02-27 04:31:00,41.9,12.0,28.94,WNW,287,6.7,6.7,29,0.00,,,0.00,VWS V13.01,2013-02-27 09:31:00,
2013-02-27 04:36:00,41.9,12.0,28.94,WSW,242,3.1,15.4,29,0.00,,,0.00,VWS V13.01,2013-02-27 09:36:00,
2013-02-27 04:41:00,41.9,12.0,28.94,SSW,206,7.6,12.8,29,0.00,,,0.00,VWS V13.01,2013-02-27 09:41:00,
2013-02-27 04:46:00,41.7,11.8,28.94,West,259,10.5,15.4,29,0.00,,,0.00,VWS V13.01,2013-02-27 09:46:00,
2013-02-27 04:51:00,41.7,11.8,28.94,WSW,251,8.7,8.7,29,0.00,,,0.00,VWS V13.01,2013-02-27 09:51:00,
2013-02-27 04:56:00,41.7,11.8,28.94,West,264,3.6,10.5,29,0.00,,,0.00,VWS V13.01,2013-02-27 09:56:00,
2013-02-27 05:01:00,41.7,11.8,28.94,WSW,240,5.4,10.1,29,0.00,,,0.00,VWS V13.01,2013-02-27 10:01:00,
2013-02-27 05:06:00,41.5,11.7,28.94,WSW,241,10.5,11.0,29,0.00,,,0.00,VWS V13.01,2013-02-27 10:06:00,
2013-02-27 05:11:00,41.5,11.7,28.94,SW,214,4.0,14.1,29,0.00,,,0.00,VWS V13.01,2013-02-27 10:11:00,
2013-02-27 05:16:00,41.5,11.7,28.94,WSW,249,8.7,8.7,29,0.00,,,0.00,VWS V13.01,2013-02-27 10:16:00,
2013-02-27 05:21:00,41.5,11.7,28.94,WSW,240,11.0,11.0,29,0.00,,,0.00,VWS V13.01,2013-02-27 10:21:00,
2013-02-27 05:26:00,41.5,11.7,28.94,WSW,250,6.3,15.0,29,0.00,,,0.00,VWS V13.01,2013-02-27 10:26:00,
2013-02-27 05:31:00,41.5,11.7,28.94,SW,235,10.1,10.1,29,0.00,,,0.00,VWS V13.01,2013-02-27 10:31:00,
2013-02-27 05:36:00,41.4,11.5,28.94,WSW,246,3.1,4.0,29,0.00,,,0.00,VWS V13.01,2013-02-27 10:36:00,
2013-02-27 05:41:00,41.4,11.5,28.94,NW,313,10.1,10.1,29,0.00,,,0.00,VWS V13.01,2013-02-27 10:41:00,
2013-02-27 05:47:00,41.4,11.5,28.94,WSW,250,5.8,5.8,29,0.00,,,0.00,VWS V13.01,2013-02-27 10:47:00,
2013-02-27 05:51:00,41.4,11.5,28.94,SW,236,8.3,10.1,29,0.00,,,0.00,VWS V13.01,2013-02-27 10:51:00,
2013-02-27 05:57:00,41.4,11.5,28.94,SW,229,10.5,10.5,29,0.00,,,0.00,VWS V13.01,2013-02-27 10:57:00,
2013-02-27 06:02:00,41.2,11.4,28.94,West,279,8.3,8.3,29,0.00,,,0.00,VWS V13.01,2013-02-27 11:02:00,
2013-02-27 06:07:00,41.2,11.4,28.97,WSW,246,5.4,5.4,29,0.00,,,0.00,VWS V13.01,2013-02-27 11:07:00,
2013-02-27 06:12:00,41.2,12.1,28.97,WSW,237,10.5,11.9,30,0.00,,,0.00,VWS V13.01,2013-02-27 11:12:00,
2013-02-27 06:17:00,41.2,12.1,28.97,SSW,197,10.1,10.1,30,0.00,,,0.00,VWS V13.01,2013-02-27 11:17:00,
2013-02-27 06:22:00,41.0,12.7,28.97,WSW,249,6.3,7.2,31,0.00,,,0.00,VWS V13.01,2013-02-27 11:22:00,
2013-02-27 06:27:00,40.8,13.3,28.97,SW,231,7.2,13.2,32,0.00,,,0.00,VWS V13.01,2013-02-27 11:27:00,
2013-02-27 06:32:00,40.6,14.5,28.97,NW,314,6.3,8.3,34,0.00,,,0.00,VWS V13.01,2013-02-27 11:32:00,
2013-02-27 06:37:00,40.5,15.6,28.97,WSW,251,5.4,8.7,36,0.00,,,0.00,VWS V13.01,2013-02-27 11:37:00,
2013-02-27 06:42:00,40.3,16.7,28.97,West,281,5.8,10.5,38,0.00,,,0.00,VWS V13.01,2013-02-27 11:42:00,
2013-02-27 06:47:00,40.1,17.1,28.97,West,266,8.1,8.1,39,0.00,,,0.00,VWS V13.01,2013-02-27 11:47:00,
2013-02-27 06:52:00,39.9,17.0,28.97,West,279,4.9,12.3,39,0.00,,,0.00,VWS V13.01,2013-02-27 11:52:00,
2013-02-27 06:57:00,39.9,17.0,28.97,WSW,238,11.0,11.0,39,0.00,,,0.00,VWS V13.01,2013-02-27 11:57:00,
2013-02-27 07:02:00,40.1,17.1,28.97,West,263,4.0,8.3,39,0.00,,,0.00,VWS V13.01,2013-02-27 12:02:00,
2013-02-27 07:07:00,40.1,17.1,28.97,West,279,4.0,8.1,39,0.00,,,0.00,VWS V13.01,2013-02-27 12:07:00,
2013-02-27 07:12:00,40.1,16.5,28.97,West,262,6.3,8.7,38,0.00,,,0.00,VWS V13.01,2013-02-27 12:12:00,
2013-02-27 07:17:00,40.3,15.5,28.97,SW,232,4.9,8.7,36,0.00,,,0.00,VWS V13.01,2013-02-27 12:17:00,
2013-02-27 07:22:00,40.3,14.2,29.00,WNW,288,11.0,11.0,34,0.00,,,0.00,VWS V13.01,2013-02-27 12:22:00,
2013-02-27 07:27:00,40.5,14.3,29.00,WSW,240,7.2,11.0,34,0.00,,,0.00,VWS V13.01,2013-02-27 12:27:00,
2013-02-27 07:32:00,40.3,16.1,29.00,SW,232,10.5,10.5,37,0.00,,,0.00,VWS V13.01,2013-02-27 12:32:00,
2013-02-27 07:37:00,39.9,17.0,29.00,SW,227,7.6,8.7,39,0.00,,,0.00,VWS V13.01,2013-02-27 12:37:00,
2013-02-27 07:42:00,39.6,17.2,29.00,WSW,248,6.3,11.0,40,0.00,,,0.00,VWS V13.01,2013-02-27 12:42:00,
2013-02-27 07:47:00,39.2,18.0,29.00,West,273,4.9,10.5,42,0.00,,,0.00,VWS V13.01,2013-02-27 12:47:00,
2013-02-27 07:52:00,39.0,17.9,29.00,West,259,5.4,5.4,42,0.00,,,0.00,VWS V13.01,2013-02-27 12:52:00,
2013-02-27 07:57:00,38.8,18.8,29.00,West,268,8.1,8.1,44,0.00,,,0.00,VWS V13.01,2013-02-27 12:57:00,
2013-02-27 08:02:00,39.2,18.6,29.00,WSW,256,6.3,12.8,43,0.00,,,0.00,VWS V13.01,2013-02-27 13:02:00,
2013-02-27 08:07:00,39.2,18.6,29.00,SW,235,3.1,5.8,43,0.00,,,0.00,VWS V13.01,2013-02-27 13:07:00,
2013-02-27 08:12:00,39.2,18.0,29.00,WSW,257,8.1,8.1,42,0.00,,,0.00,VWS V13.01,2013-02-27 13:12:00,
2013-02-27 08:17:00,39.4,18.2,29.03,WNW,282,5.4,10.5,42,0.00,,,0.00,VWS V13.01,2013-02-27 13:17:00,
2013-02-27 08:22:00,39.6,17.2,29.03,SW,218,7.6,11.0,40,0.00,,,0.00,VWS V13.01,2013-02-27 13:22:00,
2013-02-27 08:27:00,39.7,16.8,29.03,WSW,243,4.0,10.1,39,0.00,,,0.00,VWS V13.01,2013-02-27 13:27:00,
2013-02-27 08:32:00,39.7,16.8,29.03,WSW,241,5.4,10.5,39,0.00,,,0.00,VWS V13.01,2013-02-27 13:32:00,
2013-02-27 08:37:00,39.9,17.0,29.03,WSW,240,10.5,10.5,39,0.00,,,0.00,VWS V13.01,2013-02-27 13:37:00,
2013-02-27 08:42:00,39.9,16.4,29.03,WSW,244,4.0,8.7,38,0.00,,,0.00,VWS V13.01,2013-02-27 13:42:00,
2013-02-27 08:47:00,39.9,16.4,29.03,SSW,207,3.1,5.4,38,0.00,,,0.00,VWS V13.01,2013-02-27 13:47:00,
2013-02-27 08:53:00,40.1,15.3,29.03,WSW,255,9.2,15.0,36,0.00,,,0.00,VWS V13.01,2013-02-27 13:53:00,
2013-02-27 08:58:00,40.1,15.3,29.03,WSW,247,4.0,5.4,36,0.00,,,0.00,VWS V13.01,2013-02-27 13:58:00,
2013-02-27 09:03:00,40.1,15.9,29.03,West,262,5.8,5.8,37,0.00,,,0.00,VWS V13.01,2013-02-27 14:03:00,
2013-02-27 09:08:00,40.1,15.9,29.03,West,263,4.0,5.4,37,0.00,,,0.00,VWS V13.01,2013-02-27 14:08:00,
2013-02-27 09:13:00,40.1,15.9,29.03,NNE,17,3.1,5.8,37,0.00,,,0.00,VWS V13.01,2013-02-27 14:13:00,
2013-02-27 09:18:00,40.1,15.3,29.03,SW,232,5.8,8.1,36,0.00,,,0.00,VWS V13.01,2013-02-27 14:18:00,
2013-02-27 09:23:00,40.3,14.8,29.03,WSW,244,8.1,8.7,35,0.00,,,0.00,VWS V13.01,2013-02-27 14:23:00,
2013-02-27 09:28:00,40.3,14.8,29.03,WSW,248,4.0,8.1,35,0.00,,,0.00,VWS V13.01,2013-02-27 14:28:00,
2013-02-27 09:33:00,40.1,15.3,29.03,West,267,4.0,5.8,36,0.00,,,0.00,VWS V13.01,2013-02-27 14:33:00,
2013-02-27 09:38:00,40.1,15.9,29.03,WNW,294,2.7,8.3,37,0.00,,,0.00,VWS V13.01,2013-02-27 14:38:00,
2013-02-27 09:43:00,40.1,15.9,29.03,West,259,3.6,7.2,37,0.00,,,0.00,VWS V13.01,2013-02-27 14:43:00,
2013-02-27 09:48:00,40.1,16.5,29.03,West,269,2.2,8.1,38,0.00,,,0.00,VWS V13.01,2013-02-27 14:48:00,
2013-02-27 09:53:00,39.9,17.0,29.03,WSW,252,10.1,10.1,39,0.00,,,0.00,VWS V13.01,2013-02-27 14:53:00,
2013-02-27 09:58:00,39.9,17.0,29.03,West,276,4.0,4.0,39,0.00,,,0.00,VWS V13.01,2013-02-27 14:58:00,
2013-02-27 10:03:00,39.9,17.0,29.03,NW,314,2.2,5.4,39,0.00,,,0.00,VWS V13.01,2013-02-27 15:03:00,
2013-02-27 10:08:00,40.1,17.1,29.03,WSW,246,3.1,8.1,39,0.00,,,0.00,VWS V13.01,2013-02-27 15:08:00,
2013-02-27 10:13:00,40.3,16.1,29.03,WSW,246,4.0,8.1,37,0.00,,,0.00,VWS V13.01,2013-02-27 15:13:00,
2013-02-27 10:18:00,40.5,16.3,29.03,WSW,253,3.1,4.0,37,0.00,,,0.00,VWS V13.01,2013-02-27 15:18:00,
2013-02-27 10:23:00,40.5,14.3,29.03,WSW,244,7.6,10.5,34,0.00,,,0.00,VWS V13.01,2013-02-27 15:23:00,
2013-02-27 10:28:00,40.5,14.3,29.03,WSW,247,7.6,12.3,34,0.00,,,0.00,VWS V13.01,2013-02-27 15:28:00,
2013-02-27 10:33:00,40.5,15.0,29.03,WSW,244,7.6,10.5,35,0.00,,,0.00,VWS V13.01,2013-02-27 15:33:00,
2013-02-27 10:38:00,40.3,15.5,29.03,SSW,196,6.3,10.5,36,0.00,,,0.00,VWS V13.01,2013-02-27 15:38:00,
2013-02-27 10:43:00,40.3,16.1,29.03,WSW,237,6.3,10.5,37,0.00,,,0.00,VWS V13.01,2013-02-27 15:43:00,
2013-02-27 10:48:00,40.3,15.5,29.03,WSW,238,3.1,10.5,36,0.00,,,0.00,VWS V13.01,2013-02-27 15:48:00,
2013-02-27 10:53:00,40.3,16.7,29.03,SW,233,5.8,10.5,38,0.00,,,0.00,VWS V13.01,2013-02-27 15:53:00,
2013-02-27 10:58:00,40.3,17.3,29.03,WSW,246,5.8,8.1,39,0.00,,,0.00,VWS V13.01,2013-02-27 15:58:00,
2013-02-27 11:03:00,40.3,17.3,29.03,WNW,297,3.6,6.3,39,0.00,,,0.00,VWS V13.01,2013-02-27 16:03:00,
2013-02-27 11:08:00,40.3,17.3,29.03,WNW,293,8.1,8.1,39,0.00,,,0.00,VWS V13.01,2013-02-27 16:08:00,
2013-02-27 11:13:00,40.3,17.3,29.03,West,278,4.0,8.1,39,0.00,,,0.00,VWS V13.01,2013-02-27 16:13:00,
2013-02-27 11:18:00,40.3,17.3,29.03,West,261,4.0,5.4,39,0.00,,,0.00,VWS V13.01,2013-02-27 16:18:00,
2013-02-27 11:23:00,40.5,16.9,29.03,SW,232,10.5,10.5,38,0.00,,,0.00,VWS V13.01,2013-02-27 16:23:00,
2013-02-27 11:28:00,40.6,15.1,29.03,SW,221,3.1,10.1,35,0.00,,,0.00,VWS V13.01,2013-02-27 16:28:00,
2013-02-27 11:33:00,41.0,13.4,29.03,SW,230,8.3,8.7,32,0.00,,,0.00,VWS V13.01,2013-02-27 16:33:00,
2013-02-27 11:38:00,41.2,12.1,29.03,SW,232,5.4,9.2,30,0.00,,,0.00,VWS V13.01,2013-02-27 16:38:00,
2013-02-27 11:43:00,41.5,11.7,29.03,SW,225,10.1,11.0,29,0.00,,,0.00,VWS V13.01,2013-02-27 16:43:00,
2013-02-27 11:48:00,41.7,11.8,29.03,SSE,163,4.9,8.1,29,0.00,,,0.00,VWS V13.01,2013-02-27 16:48:00,
2013-02-27 11:53:00,41.9,12.0,29.03,South,190,10.5,12.3,29,0.00,,,0.00,VWS V13.01,2013-02-27 16:53:00,
2013-02-27 11:58:00,42.1,12.1,29.03,SW,228,8.7,10.1,29,0.00,,,0.00,VWS V13.01,2013-02-27 16:58:00,
2013-02-27 12:03:00,41.9,11.2,29.03,SSW,196,5.8,8.7,28,0.00,,,0.00,VWS V13.01,2013-02-27 17:03:00,
2013-02-27 12:08:00,41.7,11.0,29.03,SSW,210,8.7,15.4,28,0.00,,,0.00,VWS V13.01,2013-02-27 17:08:00,
2013-02-27 12:13:00,41.7,11.8,29.03,WSW,238,4.0,8.7,29,0.00,,,0.00,VWS V13.01,2013-02-27 17:13:00,
2013-02-27 12:18:00,41.5,11.7,29.03,WSW,244,11.0,11.9,29,0.00,,,0.00,VWS V13.01,2013-02-27 17:18:00,
2013-02-27 12:23:00,41.2,12.1,29.03,WSW,237,3.1,12.8,30,0.00,,,0.00,VWS V13.01,2013-02-27 17:23:00,
2013-02-27 12:28:00,41.4,12.3,29.03,WSW,237,5.8,8.3,30,0.00,,,0.00,VWS V13.01,2013-02-27 17:28:00,
2013-02-27 12:33:00,41.5,11.7,29.03,SW,229,5.8,5.8,29,0.00,,,0.00,VWS V13.01,2013-02-27 17:33:00,
2013-02-27 12:38:00,41.5,11.7,29.03,WNW,292,8.3,8.3,29,0.00,,,0.00,VWS V13.01,2013-02-27 17:38:00,
2013-02-27 12:43:00,41.5,10.9,29.03,SW,233,8.7,11.0,28,0.00,,,0.00,VWS V13.01,2013-02-27 17:43:00,
2013-02-27 12:48:00,41.5,10.9,29.03,WNW,289,6.3,8.7,28,0.00,,,0.00,VWS V13.01,2013-02-27 17:48:00,
2013-02-27 12:53:00,41.7,11.0,29.03,WSW,244,7.6,10.1,28,0.00,,,0.00,VWS V13.01,2013-02-27 17:53:00,
2013-02-27 12:58:00,41.9,11.2,29.03,WSW,246,8.1,8.1,28,0.00,,,0.00,VWS V13.01,2013-02-27 17:58:00,
2013-02-27 13:03:00,41.9,11.2,29.03,WSW,239,10.5,10.5,28,0.00,,,0.00,VWS V13.01,2013-02-27 18:03:00,
2013-02-27 13:08:00,41.9,9.5,29.03,SW,230,6.3,10.1,26,0.00,,,0.00,VWS V13.01,2013-02-27 18:08:00,
2013-02-27 13:13:00,42.1,9.7,29.03,SW,234,11.0,11.0,26,0.00,,,0.00,VWS V13.01,2013-02-27 18:13:00,
2013-02-27 13:18:00,42.1,9.7,29.03,West,263,8.1,11.9,26,0.00,,,0.00,VWS V13.01,2013-02-27 18:18:00,
2013-02-27 13:23:00,42.1,7.0,29.03,WSW,250,8.7,12.8,23,0.00,,,0.00,VWS V13.01,2013-02-27 18:23:00,
2013-02-27 13:28:00,42.3,9.8,29.03,WSW,245,8.3,8.3,26,0.00,,,0.00,VWS V13.01,2013-02-27 18:28:00,
2013-02-27 13:33:00,42.3,7.1,29.00,WNW,286,4.0,10.5,23,0.00,,,0.00,VWS V13.01,2013-02-27 18:33:00,
2013-02-27 13:38:00,42.4,7.3,29.00,WSW,246,5.8,6.7,23,0.00,,,0.00,VWS V13.01,2013-02-27 18:38:00,
2013-02-27 13:43:00,42.3,9.8,29.00,West,265,10.5,14.1,26,0.00,,,0.00,VWS V13.01,2013-02-27 18:43:00,
2013-02-27 13:48:00,41.9,9.5,29.00,WSW,254,6.3,11.9,26,0.00,,,0.00,VWS V13.01,2013-02-27 18:48:00,
2013-02-27 13:53:00,41.9,6.8,29.00,WNW,294,5.4,15.9,23,0.00,,,0.00,VWS V13.01,2013-02-27 18:53:00,
2013-02-27 13:58:00,42.1,7.0,29.00,SSW,207,8.7,10.5,23,0.00,,,0.00,VWS V13.01,2013-02-27 18:58:00,
2013-02-27 14:03:00,42.3,7.1,29.00,West,269,8.1,8.7,23,0.00,,,0.00,VWS V13.01,2013-02-27 19:03:00,
2013-02-27 14:08:00,42.4,7.3,29.00,WNW,293,5.8,11.4,23,0.00,,,0.00,VWS V13.01,2013-02-27 19:08:00,
2013-02-27 14:13:00,42.3,5.1,29.00,WSW,241,8.1,9.6,21,0.00,,,0.00,VWS V13.01,2013-02-27 19:13:00,
2013-02-27 14:18:00,42.3,5.1,29.00,WSW,242,8.1,12.8,21,0.00,,,0.00,VWS V13.01,2013-02-27 19:18:00,
2013-02-27 14:23:00,42.1,7.0,29.00,West,265,5.4,8.3,23,0.00,,,0.00,VWS V13.01,2013-02-27 19:23:00,
2013-02-27 14:28:00,42.1,7.0,29.00,WNW,299,4.5,10.1,23,0.00,,,0.00,VWS V13.01,2013-02-27 19:28:00,
2013-02-27 14:33:00,41.9,6.8,29.00,WNW,289,5.4,10.5,23,0.00,,,0.00,VWS V13.01,2013-02-27 19:33:00,
2013-02-27 14:38:00,41.7,6.7,29.00,West,259,4.0,8.7,23,0.00,,,0.00,VWS V13.01,2013-02-27 19:38:00,
2013-02-27 14:43:00,41.7,6.7,29.00,West,273,3.6,8.1,23,0.00,,,0.00,VWS V13.01,2013-02-27 19:43:00,
2013-02-27 14:48:00,41.7,6.7,29.00,West,264,3.1,10.5,23,0.00,,,0.00,VWS V13.01,2013-02-27 19:48:00,
2013-02-27 14:53:00,41.7,6.7,29.00,SSW,211,11.4,11.4,23,0.00,,,0.00,VWS V13.01,2013-02-27 19:53:00,
2013-02-27 14:58:00,41.5,9.2,29.00,WSW,240,11.0,19.7,26,0.00,,,0.00,VWS V13.01,2013-02-27 19:58:00,
2013-02-27 15:03:00,41.4,9.1,29.03,WSW,242,12.8,12.8,26,0.00,,,0.00,VWS V13.01,2013-02-27 20:03:00,
2013-02-27 15:08:00,41.4,10.7,29.03,West,275,8.7,10.5,28,0.00,,,0.00,VWS V13.01,2013-02-27 20:08:00,
2013-02-27 15:13:00,40.8,11.0,29.03,WSW,251,3.6,12.3,29,0.00,,,0.00,VWS V13.01,2013-02-27 20:13:00,
2013-02-27 15:18:00,40.6,11.6,29.03,WSW,253,3.1,10.5,30,0.00,,,0.00,VWS V13.01,2013-02-27 20:18:00,
2013-02-27 15:23:00,40.6,11.6,29.03,WNW,282,3.6,5.8,30,0.00,,,0.00,VWS V13.01,2013-02-27 20:23:00,
2013-02-27 15:28:00,40.6,11.6,29.03,WSW,246,7.6,8.3,30,0.00,,,0.00,VWS V13.01,2013-02-27 20:28:00,
2013-02-27 15:33:00,40.8,11.0,29.00,WNW,288,3.1,5.8,29,0.00,,,0.00,VWS V13.01,2013-02-27 20:33:00,
2013-02-27 15:38:00,40.8,11.0,29.00,West,279,4.9,5.8,29,0.00,,,0.00,VWS V13.01,2013-02-27 20:38:00,
2013-02-27 15:43:00,41.0,10.4,29.00,West,279,4.9,12.3,28,0.00,,,0.00,VWS V13.01,2013-02-27 20:43:00,
2013-02-27 15:48:00,40.8,11.0,29.03,SW,225,15.0,15.0,29,0.00,,,0.00,VWS V13.01,2013-02-27 20:48:00,
2013-02-27 15:53:00,40.3,12.1,29.03,WSW,246,16.8,16.8,31,0.00,,,0.00,VWS V13.01,2013-02-27 20:53:00,
2013-02-27 15:58:00,39.9,13.2,29.03,WNW,294,5.4,12.3,33,0.00,,,0.00,VWS V13.01,2013-02-27 20:58:00,
2013-02-27 16:03:00,39.6,14.8,29.03,SW,234,15.4,15.9,36,0.00,,,0.00,VWS V13.01,2013-02-27 21:03:00,
2013-02-27 16:08:00,39.6,16.1,29.03,WSW,250,12.3,15.0,38,0.00,,,0.00,VWS V13.01,2013-02-27 21:08:00,
2013-02-27 16:13:00,39.4,16.5,29.03,WNW,302,9.2,9.2,39,0.00,,,0.00,VWS V13.01,2013-02-27 21:13:00,
2013-02-27 16:18:00,39.2,16.3,29.03,NW,316,8.1,8.1,39,0.00,,,0.00,VWS V13.01,2013-02-27 21:18:00,
2013-02-27 16:23:00,39.2,16.3,29.03,WNW,297,6.3,11.0,39,0.00,,,0.00,VWS V13.01,2013-02-27 21:23:00,
2013-02-27 16:28:00,39.2,16.3,29.03,WNW,299,4.0,8.1,39,0.00,,,0.00,VWS V13.01,2013-02-27 21:28:00,
2013-02-27 16:33:00,39.4,15.9,29.03,WSW,250,3.6,10.5,38,0.00,,,0.00,VWS V13.01,2013-02-27 21:33:00,
2013-02-27 16:38:00,39.4,15.3,29.03,WSW,251,4.9,7.6,37,0.00,,,0.00,VWS V13.01,2013-02-27 21:38:00,
2013-02-27 16:43:00,39.4,12.7,29.03,West,259,5.8,12.8,33,0.00,,,0.00,VWS V13.01,2013-02-27 21:43:00,
2013-02-27 16:48:00,39.4,12.7,29.03,WSW,250,9.6,10.5,33,0.00,,,0.00,VWS V13.01,2013-02-27 21:48:00,
2013-02-27 16:53:00,39.2,13.2,29.03,WSW,258,15.4,19.2,34,0.00,,,0.00,VWS V13.01,2013-02-27 21:53:00,
2013-02-27 16:58:00,39.2,11.1,29.03,West,268,8.1,12.8,31,0.00,,,0.00,VWS V13.01,2013-02-27 21:58:00,
2013-02-27 17:03:00,39.4,11.3,29.06,NW,304,8.1,9.2,31,0.00,,,0.00,VWS V13.01,2013-02-27 22:03:00,
2013-02-27 17:08:00,39.2,11.1,29.06,WNW,288,6.3,11.0,31,0.00,,,0.00,VWS V13.01,2013-02-27 22:08:00,
2013-02-27 17:13:00,39.2,10.4,29.06,WNW,291,6.3,11.0,30,0.00,,,0.00,VWS V13.01,2013-02-27 22:13:00,
2013-02-27 17:18:00,39.0,11.0,29.06,WNW,291,12.3,12.3,31,0.00,,,0.00,VWS V13.01,2013-02-27 22:18:00,
2013-02-27 17:23:00,39.0,11.0,29.06,West,265,5.8,11.0,31,0.00,,,0.00,VWS V13.01,2013-02-27 22:23:00,
2013-02-27 17:28:00,39.0,11.0,29.06,NW,309,4.0,7.6,31,0.00,,,0.00,VWS V13.01,2013-02-27 22:28:00,
2013-02-27 17:33:00,39.0,11.0,29.06,West,277,7.6,10.5,31,0.00,,,0.00,VWS V13.01,2013-02-27 22:33:00,
2013-02-27 17:38:00,39.0,11.0,29.06,West,267,5.8,10.5,31,0.00,,,0.00,VWS V13.01,2013-02-27 22:38:00,
2013-02-27 17:43:00,39.0,10.2,29.06,WSW,250,2.7,6.3,30,0.00,,,0.00,VWS V13.01,2013-02-27 22:43:00,
2013-02-27 17:48:00,39.0,11.0,29.06,West,271,5.4,8.1,31,0.00,,,0.00,VWS V13.01,2013-02-27 22:48:00,
2013-02-27 17:53:00,38.8,10.8,29.06,NW,315,4.0,8.3,31,0.00,,,0.00,VWS V13.01,2013-02-27 22:53:00,
2013-02-27 17:58:00,38.7,10.6,29.06,West,274,5.8,6.7,31,0.00,,,0.00,VWS V13.01,2013-02-27 22:58:00,
2013-02-27 18:03:00,38.7,11.4,29.06,WNW,293,5.4,7.2,32,0.00,,,0.00,VWS V13.01,2013-02-27 23:03:00,
2013-02-27 18:08:00,38.5,11.9,29.06,NW,308,5.8,6.3,33,0.00,,,0.00,VWS V13.01,2013-02-27 23:08:00,
2013-02-27 18:13:00,38.1,14.8,29.06,WNW,295,5.8,8.7,38,0.00,,,0.00,VWS V13.01,2013-02-27 23:13:00,
2013-02-27 18:18:00,37.8,15.0,29.06,NW,320,6.3,8.1,39,0.00,,,0.00,VWS V13.01,2013-02-27 23:18:00,
2013-02-27 18:23:00,37.6,14.9,29.06,West,260,9.6,9.6,39,0.00,,,0.00,VWS V13.01,2013-02-27 23:23:00,
2013-02-27 18:28:00,37.8,15.0,29.06,West,280,6.3,12.3,39,0.00,,,0.00,VWS V13.01,2013-02-27 23:28:00,
2013-02-27 18:33:00,37.6,14.9,29.06,NW,315,5.4,5.4,39,0.00,,,0.00,VWS V13.01,2013-02-27 23:33:00,
2013-02-27 18:38:00,37.4,15.9,29.06,NNW,332,8.1,11.0,41,0.00,,,0.00,VWS V13.01,2013-02-27 23:38:00,
2013-02-27 18:44:00,37.2,15.7,29.06,NW,326,5.4,6.3,41,0.00,,,0.00,VWS V13.01,2013-02-27 23:44:00,
2013-02-27 18:49:00,37.0,16.1,29.06,West,276,5.4,10.5,42,0.00,,,0.00,VWS V13.01,2013-02-27 23:49:00,
2013-02-27 18:54:00,37.0,16.1,29.06,West,281,8.3,8.3,42,0.00,,,0.00,VWS V13.01,2013-02-27 23:54:00,
2013-02-27 18:59:00,36.9,16.5,29.06,West,281,4.0,8.3,43,0.00,,,0.00,VWS V13.01,2013-02-27 23:59:00,
2013-02-27 19:04:00,36.9,16.5,29.06,NW,313,4.9,8.1,43,0.00,,,0.00,VWS V13.01,2013-02-28 00:04:00,
2013-02-27 19:09:00,36.9,17.0,29.06,West,275,5.8,9.6,44,0.00,,,0.00,VWS V13.01,2013-02-28 00:09:00,
2013-02-27 19:14:00,36.9,17.0,29.06,WNW,286,6.3,9.6,44,0.00,,,0.00,VWS V13.01,2013-02-28 00:14:00,
2013-02-27 19:19:00,36.9,17.0,29.09,WNW,287,5.8,6.3,44,0.00,,,0.00,VWS V13.01,2013-02-28 00:19:00,
2013-02-27 19:24:00,36.9,17.0,29.09,West,277,4.0,8.3,44,0.00,,,0.00,VWS V13.01,2013-02-28 00:24:00,
2013-02-27 19:29:00,36.9,17.0,29.09,WNW,289,5.8,11.4,44,0.00,,,0.00,VWS V13.01,2013-02-28 00:29:00,
2013-02-27 19:34:00,36.9,17.0,29.09,WNW,290,6.7,8.3,44,0.00,,,0.00,VWS V13.01,2013-02-28 00:34:00,
2013-02-27 19:39:00,36.7,16.8,29.09,WNW,283,5.8,8.7,44,0.00,,,0.00,VWS V13.01,2013-02-28 00:39:00,
2013-02-27 19:44:00,36.7,17.4,29.09,WNW,288,4.0,8.3,45,0.00,,,0.00,VWS V13.01,2013-02-28 00:44:00,
2013-02-27 19:49:00,36.5,17.7,29.09,WNW,302,7.2,10.5,46,0.00,,,0.00,VWS V13.01,2013-02-28 00:49:00,
2013-02-27 19:54:00,36.3,17.5,29.09,West,277,5.8,10.1,46,0.00,,,0.00,VWS V13.01,2013-02-28 00:54:00,
2013-02-27 19:59:00,36.3,18.0,29.09,NW,317,5.8,8.7,47,0.00,,,0.00,VWS V13.01,2013-02-28 00:59:00,
2013-02-27 20:04:00,36.3,19.0,29.09,West,279,8.7,10.5,49,0.00,,,0.00,VWS V13.01,2013-02-28 01:04:00,
2013-02-27 20:09:00,36.1,18.8,29.09,NW,305,3.1,7.6,49,0.00,,,0.00,VWS V13.01,2013-02-28 01:09:00,
2013-02-27 20:14:00,36.1,18.8,29.09,WNW,292,5.4,6.3,49,0.00,,,0.00,VWS V13.01,2013-02-28 01:14:00,
2013-02-27 20:19:00,36.1,18.8,29.09,WNW,282,5.8,6.3,49,0.00,,,0.00,VWS V13.01,2013-02-28 01:19:00,
2013-02-27 20:24:00,36.1,19.3,29.09,WNW,299,6.3,6.3,50,0.00,,,0.00,VWS V13.01,2013-02-28 01:24:00,
2013-02-27 20:29:00,36.1,19.3,29.09,WNW,297,4.0,8.7,50,0.00,,,0.00,VWS V13.01,2013-02-28 01:29:00,
2013-02-27 20:34:00,36.0,19.1,29.09,WNW,289,4.9,8.7,50,0.00,,,0.00,VWS V13.01,2013-02-28 01:34:00,
2013-02-27 20:39:00,36.0,19.1,29.09,WNW,297,4.9,7.6,50,0.00,,,0.00,VWS V13.01,2013-02-28 01:39:00,
2013-02-27 20:44:00,35.8,19.0,29.09,NW,324,6.3,7.6,50,0.00,,,0.00,VWS V13.01,2013-02-28 01:44:00,
2013-02-27 20:49:00,35.8,19.4,29.09,West,264,4.9,11.0,51,0.00,,,0.00,VWS V13.01,2013-02-28 01:49:00,
2013-02-27 20:54:00,35.8,19.0,29.09,West,277,6.3,7.6,50,0.00,,,0.00,VWS V13.01,2013-02-28 01:54:00,
2013-02-27 20:59:00,36.0,19.1,29.09,WSW,253,7.6,7.6,50,0.00,,,0.00,VWS V13.01,2013-02-28 01:59:00,
2013-02-27 21:04:00,35.8,18.5,29.09,West,279,6.3,10.5,49,0.00,,,0.00,VWS V13.01,2013-02-28 02:04:00,
2013-02-27 21:09:00,36.0,17.7,29.09,West,279,5.4,9.6,47,0.00,,,0.00,VWS V13.01,2013-02-28 02:09:00,
2013-02-27 21:14:00,36.0,16.7,29.09,West,280,5.8,10.1,45,0.00,,,0.00,VWS V13.01,2013-02-28 02:14:00,
2013-02-27 21:20:00,36.0,16.2,29.09,WNW,287,5.8,8.7,44,0.00,,,0.00,VWS V13.01,2013-02-28 02:20:00,
2013-02-27 21:30:00,36.1,15.3,29.09,WNW,289,6.3,10.5,42,0.00,,,0.00,VWS V13.01,2013-02-28 02:30:00,
2013-02-27 21:35:00,36.1,14.7,29.06,NW,307,5.4,8.7,41,0.00,,,0.00,VWS V13.01,2013-02-28 02:35:00,
2013-02-27 21:40:00,36.1,14.7,29.06,West,280,4.9,9.6,41,0.00,,,0.00,VWS V13.01,2013-02-28 02:40:00,
2013-02-27 21:45:00,36.1,14.2,29.06,NW,311,6.3,8.3,40,0.00,,,0.00,VWS V13.01,2013-02-28 02:45:00,
2013-02-27 21:55:00,36.1,14.2,29.06,NW,306,5.8,8.1,40,0.00,,,0.00,VWS V13.01,2013-02-28 02:55:00,
2013-02-27 22:05:00,36.3,12.6,29.06,WNW,282,5.4,7.6,37,0.00,,,0.00,VWS V13.01,2013-02-28 03:05:00,
2013-02-27 22:10:00,36.3,11.9,29.06,West,275,6.3,8.7,36,0.00,,,0.00,VWS V13.01,2013-02-28 03:10:00,
2013-02-27 22:18:00,36.3,11.3,29.06,West,277,4.9,7.6,35,0.00,,,0.00,VWS V13.01,2013-02-28 03:18:00,
2013-02-27 22:23:00,36.3,10.6,29.06,WNW,286,3.6,9.6,34,0.00,,,0.00,VWS V13.01,2013-02-28 03:23:00,
2013-02-27 22:28:00,36.3,10.6,29.06,West,267,5.8,8.1,34,0.00,,,0.00,VWS V13.01,2013-02-28 03:28:00,
2013-02-27 22:33:00,36.3,10.6,29.06,WNW,289,5.8,7.6,34,0.00,,,0.00,VWS V13.01,2013-02-28 03:33:00,
2013-02-27 22:38:00,36.3,10.6,29.06,WNW,298,3.1,5.4,34,0.00,,,0.00,VWS V13.01,2013-02-28 03:38:00,
2013-02-27 22:43:00,36.3,10.6,29.06,WNW,286,5.4,7.2,34,0.00,,,0.00,VWS V13.01,2013-02-28 03:43:00,
2013-02-27 22:48:00,36.3,10.6,29.06,NW,324,4.9,8.7,34,0.00,,,0.00,VWS V13.01,2013-02-28 03:48:00,
2013-02-27 22:53:00,36.3,10.6,29.06,NW,318,3.1,10.5,34,0.00,,,0.00,VWS V13.01,2013-02-28 03:53:00,
2013-02-27 22:58:00,36.3,10.6,29.06,NW,320,3.6,7.2,34,0.00,,,0.00,VWS V13.01,2013-02-28 03:58:00,
2013-02-27 23:03:00,36.3,11.3,29.06,West,273,4.0,4.0,35,0.00,,,0.00,VWS V13.01,2013-02-28 04:03:00,
2013-02-27 23:08:00,36.5,11.5,29.06,WSW,242,3.1,12.3,35,0.00,,,0.00,VWS V13.01,2013-02-28 04:08:00,
2013-02-27 23:13:00,36.5,11.5,29.06,WNW,286,3.6,9.6,35,0.00,,,0.00,VWS V13.01,2013-02-28 04:13:00,
2013-02-27 23:18:00,36.7,11.0,29.06,WSW,243,5.8,10.1,34,0.00,,,0.00,VWS V13.01,2013-02-28 04:18:00,
2013-02-27 23:24:00,36.7,11.0,29.06,WSW,242,2.7,5.8,34,0.00,,,0.00,VWS V13.01,2013-02-28 04:24:00,
2013-02-27 23:28:00,36.7,11.0,29.06,WSW,244,4.5,6.3,34,0.00,,,0.00,VWS V13.01,2013-02-28 04:28:00,
2013-02-27 23:34:00,36.7,11.6,29.06,WSW,239,5.4,5.8,35,0.00,,,0.00,VWS V13.01,2013-02-28 04:34:00,
2013-02-27 23:39:00,36.7,12.3,29.06,NW,314,3.6,5.4,36,0.00,,,0.00,VWS V13.01,2013-02-28 04:39:00,
2013-02-27 23:44:00,36.7,12.9,29.06,West,266,5.4,12.3,37,0.00,,,0.00,VWS V13.01,2013-02-28 04:44:00,
2013-02-27 23:49:00,36.7,12.3,29.06,WSW,244,5.8,10.5,36,0.00,,,0.00,VWS V13.01,2013-02-28 04:49:00,
2013-02-27 23:53:00,36.9,11.8,29.06,West,267,8.1,9.6,35,0.00,,,0.00,VWS V13.01,2013-02-28 04:53:00,
2013-02-27 23:58:00,36.9,11.8,29.06,WNW,285,6.3,8.7,35,0.00,,,0.00,VWS V13.01,2013-02-28 04:58:00,